{"data":{"norad_id":52359,"epoch":"2026-05-24T22:06:28.833120Z","epoch_age_seconds":81624,"freshness":"FRESH","line1":"1 52359U 22045AE  26144.92116705  .00000255  00000+0  34083-4 0  9998","line2":"2 52359  53.2141 216.9161 0001079  88.2061 271.9055 15.08835952227297","mean_motion":15.08835952,"eccentricity":0.0001079,"inclination_deg":53.2141,"raan_deg":216.9161,"arg_perigee_deg":88.2061,"mean_anomaly_deg":271.9055,"bstar":3.4083e-5,"rev_number":22729,"period_min":95.437810723641,"perigee_km":539.00932147931,"apogee_km":540.50220273737,"semimajor_km":6917.8927621083,"source":"CELESTRAK","updated_at":"2026-05-25T13:38:17.118261Z"}}